Home > Weather > Altenburg > Past weeks

Flag for Germany Weather for the Past 2 Weeks in Altenburg, Thuringia, Germany

Now
59 °F

Passing clouds.


Feels Like: 57 °F
Forecast: 42 / 63 °F
Wind: 13 mph from Northeast

Location: Altenburg Nobitz

Current Time: May 1, 2016 at 6:05:57 PM

Latest Report: May 1, 2016 at 5:20 PM


Visibility: N/A

Pressure: 30.18 "Hg

Humidity: 51%

Dew Point: 41 °F

Location of AltenburgLocation

Historic Weather in Altenburg — Graph

°F

Altenburg Temperature Yesterday

Maximum temperature yesterday: 64 °F (at 12:50 PM)
Minimum temperature yesterday: 48 °F (at 8:50 AM)
Average temperature yesterday: 61 °F

High & Low Weather Summary for the Past Weeks

 TemperatureHumidityPressure
High64 °F (Apr 30, 12:50 PM)100% (Apr 17, 8:50 AM)30.33 "Hg (Apr 17, 8:50 AM)
Low34 °F (Apr 24, 12:50 PM)32% (Apr 30, 12:50 PM)29.50 "Hg (Apr 26, 7:50 AM)
Average49 °F63%29.96 "Hg
* Reported Apr 16 4:20 PM — May 1 4:20 PM, Altenburg, Weather by CustomWeather, © 2016

Note: Actual official high and low records may vary slightly from our data, if they occured in-between our weather recording intervals... More about our weather records

Advertising

Altenburg Weather History for the Previous 24 Hours

Scroll right to see more
 ConditionsComfort  
Time TempWeatherWind HumidityBarometerVisibility
4:20 PM
Sun, May 1
61 °FPartly sunny.13 mph52%30.15 "HgN/A
3:50 PM61 °FPartly sunny.14 mph48%30.15 "HgN/A
3:20 PM61 °FPartly sunny.13 mph52%30.15 "HgN/A
2:50 PM61 °FPartly sunny.14 mph48%30.15 "HgN/A
2:20 PM61 °FPartly sunny.14 mph45%30.15 "HgN/A
1:50 PM61 °FPassing clouds.13 mph55%30.15 "HgN/A
1:20 PM61 °FPassing clouds.13 mph59%30.15 "HgN/A
12:50 PM59 °FPassing clouds.12 mph59%30.15 "HgN/A
12:20 PM57 °FPassing clouds.10 mph67%30.15 "HgN/A
11:50 AM57 °FPassing clouds.9 mph67%30.15 "HgN/A
11:20 AM54 °FPassing clouds.10 mph72%30.15 "HgN/A
10:50 AM52 °FPassing clouds.9 mph67%N/AN/A
10:20 AM50 °FPassing clouds.8 mph67%30.15 "HgN/A
9:50 AM48 °FPassing clouds.7 mph76%30.12 "HgN/A
8:50 AM45 °FSunny.8 mph81%30.12 "Hg10 mi
8:20 AM45 °FSunny.8 mph81%30.12 "Hg10 mi
6:50 PM
Sat, Apr 30
63 °FPassing clouds.9 mph34%29.98 "HgN/A
6:20 PM63 °FPassing clouds.12 mph34%29.98 "HgN/A
Weather by CustomWeather, © 2016

See weather overviewHow to use our weather pages